Wind_Gust
15 15 14 14 15 14 14 14 14 14 14 13 14 14 15 15 15 15 14 15 16 16 15 16 16 17 18 19 19 19 18 24 23 20 21 24 5 13 14 5 21 18 11 17 20 22 22 21 20 18 19 19 17 19 19 17 16 18 23 22 22 20 18 14 15 18 16 11 15 17 17 18 10 11 10 11 11 13 16 13 16 16 19 17 21 22 26 25
15 14 14 14 14 14 13 14 15 15 14 13 14 14 14 15 15 15 15 15 16 16 16 15 16 17 18 18 19 18 22 23 23 24 36 11 14 14 13 8 17 17 14 20 22 22 22 23 21 21 20 22 15 19 19 22 19 23 21 23 22 19 11 10 10 10 12 14 17 16 14 17 13 11 13 16 16 17 17 16 17 18 17 15 18 23 24 24
15 15 14 14 14 13 14 14 14 14 14 15 14 14 13 14 15 15 15 15 16 16 16 15 16 17 17 17 17 17 23 23 21 27 17 15 17 14 14 13 18 19 22 20 20 19 20 20 20 22 21 19 20 18 21 21 22 23 21 22 24 12 11 10 8 9 11 15 16 16 16 16 13 11 9 15 16 15 18 20 17 18 18 18 20 21 24 24
14 15 15 14 14 14 14 14 15 14 13 14 14 14 13 14 15 15 15 14 15 15 15 16 16 17 17 17 15 24 20 21 24 15 17 7 8 11 15 15 16 23 20 16 17 20 15 17 20 22 18 20 18 14 25 22 25 20 23 24 17 11 16 14 13 12 11 12 14 16 18 13 13 13 13 9 17 17 13 15 17 18 22 23 22 23 23 24
13 13 15 15 15 13 14 15 16 16 15 13 13 14 14 14 14 15 15 14 14 15 15 15 15 17 17 16 16 20 17 18 18 17 14 4 3 11 16 17 18 26 21 15 15 16 16 20 21 21 20 24 17 19 23 20 24 13 24 21 15 10 16 10 9 7 10 10 15 16 17 14 16 12 12 14 18 22 13 11 9 12 26 27 26 25 24 23
13 12 13 14 14 15 16 16 16 13 15 14 15 14 14 14 14 15 15 15 14 15 15 15 15 16 16 15 25 16 16 20 14 13 7 4 3 9 16 19 19 25 22 21 22 19 21 20 22 23 24 21 20 24 22 21 20 24 22 20 18 17 15 10 9 7 10 13 15 17 14 17 13 12 9 12 12 16 17 15 12 15 23 24 24 25 24 23
14 13 13 14 14 16 15 15 16 15 14 13 14 15 15 15 14 14 15 15 15 15 15 14 14 16 15 17 19 16 21 31 9 14 7 6 5 11 18 21 20 25 24 26 23 27 24 24 25 22 21 21 20 26 18 20 21 26 24 17 21 18 19 16 15 9 13 12 17 15 14 16 13 11 10 12 8 11 13 11 16 21 23 24 25 22 22 23
12 13 14 14 16 16 16 15 15 14 15 15 15 14 14 14 14 14 15 15 15 15 15 14 13 13 11 18 14 18 22 27 19 13 12 7 8 16 20 23 26 26 28 29 28 26 25 26 27 22 24 23 18 25 17 19 21 26 30 15 15 14 15 14 15 14 12 15 18 12 15 13 12 11 10 12 9 8 11 13 19 21 22 22 22 22 20 19
13 13 13 13 14 16 16 15 16 16 15 13 14 15 16 15 16 16 15 15 15 15 13 13 13 12 6 17 15 19 25 25 14 16 15 10 10 17 23 22 24 28 29 28 26 24 24 26 26 23 21 24 16 22 19 21 25 26 23 19 16 17 14 14 14 15 14 15 12 12 14 11 10 9 14 10 8 10 12 15 19 21 21 21 21 20 19 20
13 13 14 15 15 14 15 15 15 16 15 14 14 14 14 14 15 15 16 15 15 14 14 12 12 10 15 14 15 20 13 10 9 12 11 7 12 17 18 16 27 27 28 27 25 25 28 26 26 22 16 19 12 20 18 22 15 17 22 22 19 18 16 14 17 14 10 15 14 16 12 12 10 15 19 11 9 11 14 16 17 20 22 20 20 19 17 19
14 15 15 15 15 15 14 14 15 15 14 13 13 14 16 15 16 16 16 15 15 14 13 13 9 13 14 12 20 22 12 9 11 11 10 8 12 16 15 14 26 31 27 25 27 27 25 20 21 14 14 24 18 19 21 22 16 10 15 19 22 20 18 17 18 18 16 18 16 16 15 11 13 14 17 18 12 12 14 16 18 19 21 23 21 20 17 17
15 15 16 16 15 15 15 15 15 14 15 14 13 15 15 15 16 15 16 15 15 13 11 10 10 15 15 16 21 23 11 10 12 14 12 8 10 9 7 13 22 24 25 27 27 24 23 18 17 22 21 16 24 13 23 18 17 15 12 18 18 19 25 21 22 19 16 16 12 13 15 18 18 19 16 16 13 14 14 16 19 20 22 23 22 20 19 18
16 17 16 17 16 15 15 16 15 15 14 14 14 15 15 17 16 16 16 15 13 11 11 9 10 15 15 19 28 32 15 11 12 13 13 10 9 10 8 15 19 18 21 22 24 24 18 16 20 24 18 18 18 24 12 20 17 17 17 19 15 18 23 21 21 16 15 13 9 16 25 24 24 18 18 16 16 15 15 17 20 21 22 22 21 20 18 17
17 17 17 16 17 16 15 15 15 15 15 15 17 17 16 17 17 17 17 15 13 12 11 8 15 11 13 22 20 8 13 16 17 22 24 20 16 10 8 16 15 14 11 16 15 15 13 14 19 22 11 20 20 14 18 20 15 25 20 20 22 22 25 23 24 20 21 16 14 18 24 25 24 19 19 17 17 18 18 17 20 20 19 20 20 20 19 17
18 18 16 15 17 17 15 15 14 14 14 15 17 17 17 19 19 18 16 15 12 10 8 9 15 14 15 27 19 22 19 17 22 26 19 18 19 17 13 18 17 13 13 9 14 13 12 13 18 24 24 17 13 20 19 21 22 22 26 26 24 21 23 20 17 20 25 21 16 21 25 20 23 18 15 16 17 16 17 17 19 19 18 18 18 19 19 18
18 17 16 14 16 16 16 16 15 15 15 17 18 18 19 21 21 20 18 15 11 9 15 14 15 18 20 30 15 12 14 18 24 20 21 18 17 15 15 19 17 14 13 12 9 13 15 15 24 23 21 18 23 25 24 23 25 26 25 20 26 24 21 21 21 19 15 16 18 24 24 18 20 16 14 14 15 15 16 16 16 18 16 17 17 17 16 18
18 17 17 15 15 15 15 15 14 14 15 16 17 18 20 21 22 21 16 13 16 16 16 13 13 15 17 17 12 14 20 21 8 10 14 21 20 16 19 19 22 19 14 11 10 14 17 20 18 19 21 26 26 27 26 27 26 28 27 22 21 27 18 23 22 18 19 18 23 24 26 17 21 18 16 14 13 14 17 17 14 14 15 13 15 15 15 15
18 17 17 16 15 16 16 15 16 16 16 16 15 17 27 22 14 5 11 16 16 14 13 13 12 16 35 35 19 12 9 11 11 11 12 15 19 19 19 23 18 20 18 17 13 21 22 26 23 26 24 27 31 31 34 31 29 26 27 23 22 24 21 19 29 24 21 21 21 24 24 20 18 19 17 12 9 13 15 16 14 13 14 16 13 13 13 14
17 16 16 16 16 16 15 15 14 13 15 15 21 21 15 14 14 13 19 24 24 15 16 26 24 23 11 13 18 14 15 10 8 12 16 18 18 20 19 17 19 25 25 23 23 21 27 22 22 28 34 33 32 30 29 19 21 20 24 20 19 24 24 20 21 19 19 27 24 25 28 20 16 15 16 15 10 9 13 10 11 13 13 13 13 12 11 13
17 17 15 16 15 16 15 13 13 13 13 14 18 13 11 11 17 16 17 21 29 19 12 15 34 18 11 13 12 14 13 11 16 16 15 19 24 21 19 22 24 24 24 28 27 25 26 28 32 33 29 30 26 27 24 11 18 18 22 20 20 23 24 17 17 16 10 20 25 28 19 16 16 16 16 14 10 10 10 11 12 14 14 14 14 12 11 10
17 15 16 16 15 16 15 13 12 11 9 17 16 16 16 11 18 19 21 23 27 25 22 16 27 26 21 13 11 15 16 18 16 12 19 23 23 27 26 26 27 28 28 23 26 22 27 30 31 28 25 26 27 25 20 12 15 18 20 22 23 24 24 22 20 15 13 16 19 11 15 15 17 15 15 13 10 11 11 11 12 12 13 12 12 12 11 9
16 16 15 16 16 16 14 12 13 13 11 18 17 19 17 12 15 15 16 22 26 34 30 28 19 25 28 27 13 10 12 14 17 18 19 24 28 34 26 27 29 28 25 26 25 26 31 34 27 26 26 24 23 23 18 17 16 18 22 23 22 25 21 18 16 13 11 16 18 19 18 15 15 15 15 15 14 12 10 10 11 11 12 13 11 11 9 10
18 16 15 16 16 16 14 13 11 8 21 18 19 19 20 10 10 15 14 24 30 25 31 29 29 32 34 24 21 12 17 20 20 25 27 25 28 32 31 32 28 25 29 27 31 27 29 30 25 27 22 21 22 23 22 21 19 22 24 26 26 24 24 27 19 13 11 16 20 20 18 16 15 14 16 15 14 12 10 10 11 11 13 12 13 13 11 12
17 17 16 16 17 16 16 13 12 17 19 17 19 19 8 9 14 13 16 20 19 15 28 31 31 31 31 28 22 25 23 21 21 19 25 32 32 26 31 30 27 29 31 30 27 27 25 19 25 22 23 26 25 24 25 28 26 22 21 22 26 24 26 17 28 16 13 13 15 20 18 18 16 17 17 15 12 13 13 14 14 14 14 13 14 16 16 15
16 17 16 16 16 18 15 14 17 13 11 14 20 17 16 14 13 11 16 20 25 23 19 21 24 26 25 18 18 26 23 25 21 16 27 28 32 32 28 32 31 31 25 28 26 27 26 20 23 26 25 27 28 29 31 27 27 24 18 20 15 19 25 17 24 20 23 21 22 25 27 26 18 15 15 16 15 15 14 16 16 16 15 15 16 17 17 16
15 14 15 15 16 16 16 19 9 8 12 18 10 12 11 9 11 12 15 18 20 23 18 23 28 28 31 25 24 23 16 32 25 24 22 28 25 30 31 33 33 29 26 28 31 29 24 23 27 28 28 27 29 29 27 27 26 25 30 19 13 16 17 18 19 24 23 26 28 16 24 21 21 19 16 16 16 18 17 17 18 17 19 19 21 22 23 22
16 14 15 15 15 13 17 10 14 12 15 13 12 10 10 12 12 12 19 19 21 28 23 23 27 25 30 28 32 26 24 30 25 25 24 28 31 28 28 27 27 21 27 26 29 35 21 27 26 28 30 31 30 33 32 31 26 25 20 23 16 15 16 17 19 22 18 18 21 18 25 20 27 20 16 16 18 19 19 18 16 18 17 19 21 23 22 24
16 14 15 15 14 11 16 21 18 18 17 10 9 11 14 13 13 14 19 15 20 17 20 19 16 20 20 27 30 39 11 27 33 32 25 25 27 29 30 27 28 23 25 30 31 20 26 29 28 30 30 34 34 27 24 29 29 19 20 22 20 18 18 18 21 23 14 17 24 26 23 23 23 23 17 20 20 18 19 18 17 18 19 21 22 23 23 23
17 16 16 15 15 11 16 22 19 21 12 9 12 15 15 14 16 19 15 16 16 16 19 19 20 19 16 25 34 31 17 26 24 30 27 25 29 23 36 26 28 24 25 27 27 22 27 30 31 30 32 34 25 22 23 25 30 15 16 15 15 16 16 16 21 21 15 18 22 27 29 30 24 23 24 19 18 20 21 19 18 20 21 21 21 21 22 22
17 16 18 16 16 18 17 16 24 18 15 14 16 17 17 14 18 18 17 20 18 14 11 16 23 22 22 31 32 31 27 21 10 36 33 36 31 18 25 15 29 26 28 27 28 23 19 21 27 35 37 27 23 20 23 22 9 16 17 20 18 16 18 17 17 19 20 23 26 23 29 29 26 25 24 26 22 19 22 20 21 23 20 20 20 21 22 22
15 18 18 15 21 16 13 19 18 14 14 11 15 19 14 18 21 22 18 14 13 15 15 19 21 19 28 29 32 31 27 22 24 33 34 30 31 26 21 25 23 27 26 28 29 19 19 19 22 30 20 21 21 21 15 18 14 19 23 24 24 22 16 18 22 17 23 25 26 21 28 25 24 28 20 19 15 16 19 21 22 21 20 20 19 20 21 20
16 18 18 21 20 18 19 13 12 12 10 14 17 16 23 21 24 26 18 16 18 12 15 16 14 23 26 27 25 38 36 24 25 40 36 38 32 37 36 31 36 36 34 33 31 24 28 30 23 20 15 19 28 25 22 18 17 22 21 24 27 28 28 31 31 31 29 28 23 20 21 22 18 17 27 21 18 17 16 22 23 21 20 19 19 19 18 19
17 18 19 22 20 22 24 23 16 14 15 16 18 20 23 21 24 25 21 14 13 10 15 18 11 15 21 25 30 34 27 27 29 31 32 36 32 29 27 29 29 30 32 31 28 27 25 24 28 22 21 25 26 34 32 29 27 26 29 31 33 33 32 28 33 26 28 17 13 21 19 25 22 20 22 22 19 22 22 23 23 21 20 20 18 18 19 20
17 19 25 21 23 24 22 19 20 16 13 13 17 22 23 23 24 8 18 14 11 11 13 16 21 12 21 33 24 32 34 24 30 37 34 36 34 33 35 29 30 28 24 32 38 33 29 32 33 30 32 27 32 29 27 25 28 29 22 31 29 27 36 30 36 36 33 26 18 11 25 25 26 24 19 21 21 22 21 22 22 21 20 19 19 19 19 19
17 21 25 24 24 25 25 24 20 16 15 16 22 26 25 27 18 14 19 14 15 11 15 18 20 15 22 25 22 33 29 32 28 31 36 36 35 35 35 34 31 27 23 32 28 27 29 24 25 29 16 32 30 26 23 24 24 26 24 22 29 30 21 29 13 23 28 26 24 16 15 16 17 17 17 22 24 22 20 21 21 21 19 19 20 19 18 18
16 22 19 25 21 17 19 22 19 18 19 18 27 28 29 23 18 19 15 10 11 10 19 23 18 19 23 26 22 29 26 20 29 32 36 34 33 35 29 30 38 32 29 32 25 27 28 28 28 32 13 28 30 26 27 27 33 32 31 35 27 15 23 15 9 15 9 20 19 13 14 16 19 15 19 19 21 22 20 19 21 18 18 18 18 17 17 19
21 20 22 17 19 15 14 18 22 23 21 23 27 25 25 23 16 10 12 9 11 11 13 16 24 22 24 30 28 31 29 21 32 35 35 31 37 30 34 28 27 32 25 26 26 23 25 22 24 31 24 23 26 24 20 29 19 30 34 29 16 11 14 24 25 14 22 28 17 20 20 24 28 24 24 22 24 21 21 21 22 19 18 18 17 16 17 18
20 19 21 21 19 14 16 21 24 23 23 25 27 17 19 25 16 15 10 9 9 13 15 12 14 18 21 25 32 35 30 29 32 33 27 32 36 27 28 33 30 31 27 22 21 24 22 26 26 27 26 21 12 24 23 19 14 26 28 23 35 28 18 24 23 29 30 28 20 23 22 22 27 24 31 26 26 22 23 23 22 19 19 17 16 16 15 15
19 17 15 9 10 17 20 25 25 23 24 28 28 27 24 23 10 14 9 9 11 13 14 13 15 12 16 23 24 33 36 39 33 31 32 33 29 30 30 24 29 26 27 19 24 24 24 21 26 20 22 24 25 26 29 29 22 14 21 32 27 18 24 22 24 18 30 24 18 24 25 25 26 21 30 30 26 24 25 23 20 19 17 16 15 14 15 16
16 11 12 8 10 18 23 25 22 23 25 29 26 30 14 20 17 9 10 7 8 10 11 14 15 19 19 14 21 34 33 31 33 32 26 30 26 24 30 26 25 32 27 24 18 18 24 16 24 29 16 26 33 35 29 30 31 29 27 32 31 23 15 22 25 26 30 24 23 26 26 21 21 16 24 26 27 26 24 23 20 18 17 16 14 13 15 17
9 11 10 9 15 19 25 22 23 28 28 24 22 22 17 18 10 9 8 9 13 15 20 21 22 21 15 18 22 22 33 33 35 34 30 28 29 22 22 26 22 31 30 26 19 21 23 22 21 29 29 32 28 30 20 30 27 26 28 29 31 28 27 28 24 15 19 28 27 27 27 21 14 11 22 24 29 26 24 26 23 20 17 15 15 15 15 15
10 12 11 12 16 22 25 23 26 20 24 23 22 24 18 6 9 14 15 13 10 21 14 24 24 26 25 23 20 26 27 30 31 28 26 26 25 14 23 17 22 26 34 30 25 19 14 23 24 30 31 32 19 15 9 11 16 24 27 28 30 26 25 29 24 23 18 12 11 19 20 18 13 11 14 26 28 26 23 25 25 21 19 17 17 17 17 18
11 8 8 15 17 20 17 19 16 18 21 20 9 12 9 8 9 12 14 8 14 13 18 23 22 19 22 24 20 27 29 32 26 29 23 25 23 16 16 21 17 25 28 34 22 19 6 24 29 30 26 19 15 13 11 10 15 20 25 23 30 32 27 26 22 22 22 14 18 16 18 19 12 13 16 25 26 25 22 23 26 23 20 19 18 18 18 18
10 8 10 11 15 13 19 21 20 19 23 14 12 11 8 10 11 16 19 12 14 9 18 19 17 21 19 15 19 28 29 23 13 15 21 18 23 12 12 17 20 31 31 24 26 22 20 16 25 28 28 25 18 19 21 16 20 28 28 20 18 26 26 18 13 20 19 22 21 20 24 18 15 14 18 25 26 24 23 23 24 25 20 19 18 18 19 18
12 9 9 16 16 14 19 10 13 17 20 17 13 15 15 11 12 17 13 19 20 23 21 23 23 14 18 14 23 22 30 18 30 13 14 18 19 12 12 16 24 23 23 15 9 23 14 10 21 33 32 32 36 37 36 28 29 19 12 20 11 17 20 21 20 20 19 15 15 22 17 18 18 16 19 23 25 24 22 23 22 21 20 20 19 19 19 18
13 14 12 17 17 10 18 15 16 16 16 17 8 13 10 13 11 12 16 25 25 26 29 27 25 21 20 17 21 27 24 16 23 21 21 19 19 16 11 20 17 19 13 8 14 19 12 9 13 15 26 29 20 15 14 12 23 28 15 17 13 8 12 18 15 20 21 18 20 16 14 24 21 20 21 21 22 24 22 21 22 20 19 20 20 20 19 19
12 12 16 19 16 18 16 15 16 15 15 12 13 10 13 13 10 15 18 20 20 31 25 14 14 14 17 20 21 20 22 23 14 20 15 17 12 14 14 17 13 14 17 15 10 18 16 11 11 13 20 17 12 12 10 12 21 18 21 15 11 10 8 17 19 21 17 21 22 15 24 27 26 23 21 21 19 21 21 21 20 19 18 19 21 21 17 20
13 11 12 11 14 16 20 17 18 15 11 12 10 7 8 12 13 13 17 29 20 15 15 11 15 18 16 20 25 24 24 22 21 12 17 16 19 18 23 17 14 12 16 18 11 20 22 13 9 12 17 14 14 15 13 19 19 16 16 15 14 9 10 17 10 13 15 18 12 17 16 18 26 22 21 20 20 21 20 20 18 18 19 19 20 20 20 19
7 12 15 10 13 10 14 12 16 16 14 13 10 9 9 13 15 20 15 9 16 19 20 11 15 17 15 17 23 21 25 26 11 16 16 18 17 20 20 18 14 16 17 19 12 10 19 9 11 13 19 17 15 13 13 18 20 20 17 16 13 12 14 14 14 10 12 11 12 23 24 24 19 22 21 21 20 22 22 20 19 19 19 19 20 20 19 17
6 6 8 11 16 12 13 14 13 16 16 14 9 10 13 11 12 13 12 9 9 10 12 19 10 15 13 23 23 24 11 12 22 16 12 16 13 11 18 10 21 15 20 18 14 6 15 13 16 16 15 12 13 13 15 16 18 25 18 16 16 16 18 16 14 12 12 16 18 25 26 19 13 18 24 21 21 21 22 20 19 18 18 19 20 19 18 17
8 8 11 15 15 14 13 14 14 16 14 16 15 10 11 10 11 9 10 7 9 12 14 19 21 15 19 23 24 18 10 13 17 18 13 10 16 10 9 13 18 22 21 19 13 13 13 16 13 12 16 10 11 12 15 18 20 24 20 17 14 11 13 11 11 10 9 14 18 18 20 18 17 19 21 21 21 21 22 20 18 17 16 18 20 19 18 16
9 7 8 11 14 8 16 14 14 14 15 13 11 11 10 11 11 10 10 7 13 13 12 12 17 21 17 22 23 18 16 23 23 22 25 20 22 16 15 14 12 22 20 15 10 21 17 26 19 18 17 13 11 12 17 19 19 17 11 12 13 14 15 16 15 13 15 15 19 13 14 23 25 22 24 20 22 22 20 18 19 17 15 18 19 19 17 15
Wind_Speed
11 11 10 10 10 11 9 10 10 8 8 10 10 10 11 12 12 12 11 10 12 12 12 11 13 14 14 15 15 15 15 12 13 10 12 12 1 10 10 1 15 13 9 8 11 12 13 12 11 10 8 8 6 7 8 7 5 6 8 7 9 7 7 5 6 7 7 1 6 7 7 7 1 3 3 3 4 5 8 5 7 8 10 8 11 13 16 16
11 10 10 10 10 9 10 10 10 11 11 10 10 10 10 10 11 12 11 11 12 12 12 11 12 13 13 13 15 14 14 13 13 15 20 5 12 12 10 6 14 12 10 10 13 13 12 13 12 12 9 8 6 6 9 6 7 8 7 8 8 7 1 2 2 2 2 5 6 5 6 7 4 4 4 6 7 9 8 7 9 9 9 8 10 14 15 15
10 11 11 10 10 10 9 8 9 10 10 10 10 10 10 10 11 12 11 11 12 12 12 12 12 13 13 13 14 14 14 12 11 16 6 8 11 9 11 11 15 14 12 11 11 10 10 11 11 12 9 7 7 7 10 7 9 10 8 8 9 4 1 2 1 1 3 6 5 6 6 6 5 3 1 6 8 7 9 8 8 9 10 10 12 12 14 14
10 9 10 11 10 10 10 11 12 10 9 10 10 11 10 10 11 11 12 10 11 12 12 12 12 13 13 14 12 13 10 11 11 6 9 5 6 9 12 11 13 16 12 8 9 10 8 7 11 12 8 8 7 5 10 7 8 7 9 9 6 3 6 5 5 3 3 4 6 6 7 3 4 4 5 1 8 8 5 7 9 9 13 14 13 15 14 14
9 9 9 10 11 10 10 9 9 11 11 10 10 9 10 11 10 11 11 11 11 11 12 12 12 12 13 13 13 10 8 7 1 9 7 1 1 8 13 12 14 16 12 8 8 8 8 10 11 11 8 8 7 9 10 10 10 3 11 11 7 1 7 1 2 1 3 4 7 6 7 6 6 4 5 6 9 9 4 4 2 5 16 16 16 15 14 14
10 9 9 9 10 11 12 12 12 11 9 10 10 11 10 10 10 11 11 11 11 11 11 12 12 12 13 13 13 7 5 5 4 5 5 3 1 7 13 14 14 15 13 11 11 10 12 11 12 10 9 9 10 10 10 10 11 9 10 11 8 7 6 3 2 1 3 5 6 7 6 8 4 2 2 4 3 7 8 6 3 8 13 15 14 15 14 15
10 10 10 10 11 12 12 11 10 11 11 10 9 10 11 11 11 10 11 11 11 12 11 11 11 12 12 14 9 7 9 10 1 7 6 3 3 9 14 16 15 15 14 14 13 12 14 14 14 11 10 10 11 11 9 11 11 12 8 8 11 10 9 7 6 3 5 5 7 7 7 7 5 4 3 4 2 4 6 4 8 12 13 15 15 14 14 14
9 9 9 10 9 10 12 12 11 11 10 11 12 11 10 11 11 11 11 11 11 11 11 11 11 11 9 9 5 7 10 11 10 6 8 1 4 10 14 13 16 15 16 17 16 16 15 15 15 11 10 10 7 12 8 10 11 12 13 6 6 7 7 7 7 6 5 6 7 5 7 5 4 3 3 4 2 2 4 6 11 12 13 12 13 14 13 12
9 9 10 10 10 9 10 12 12 12 12 9 8 9 11 11 12 12 12 12 11 11 10 10 10 10 4 8 5 8 10 13 6 8 8 4 3 9 14 10 15 16 16 16 16 14 14 13 15 11 9 12 7 12 10 10 10 13 13 10 8 8 7 6 6 7 6 5 4 5 6 4 3 1 6 3 2 4 5 7 10 12 12 12 12 12 12 12
9 10 11 11 12 11 10 10 11 11 11 10 10 11 10 11 11 12 11 11 11 11 10 10 9 8 9 5 6 8 0 4 2 3 4 1 4 9 10 7 16 16 15 16 15 15 16 12 15 12 8 10 4 10 9 12 2 7 13 12 11 9 8 6 8 6 4 6 6 7 4 4 3 6 7 4 2 4 6 8 9 11 12 12 12 11 10 12
10 11 10 12 12 12 11 10 11 11 10 9 9 8 11 11 12 12 11 11 11 11 10 10 7 9 6 4 8 9 5 3 2 3 4 2 4 8 7 6 14 15 16 15 16 17 15 11 12 4 4 8 6 10 11 9 8 3 7 10 13 11 9 7 8 8 6 8 8 8 7 4 5 6 4 9 5 5 7 8 9 10 11 12 12 11 9 10
11 12 12 12 12 12 11 11 11 10 10 10 10 10 11 11 12 12 11 12 11 10 9 7 8 5 6 7 8 9 5 3 3 5 4 2 3 2 1 6 12 14 15 15 17 15 14 10 9 10 6 5 9 5 11 10 9 7 5 8 10 11 11 12 12 10 8 6 4 6 7 9 8 9 8 8 6 6 6 8 10 11 11 12 12 10 9 8
11 13 12 12 13 12 11 11 12 12 10 11 10 10 11 11 13 12 11 11 9 8 8 7 6 5 6 8 13 18 7 3 4 5 5 2 2 3 1 6 10 10 12 12 14 14 10 7 11 13 9 5 7 6 3 11 8 9 8 8 6 8 10 12 11 8 7 5 3 7 9 10 13 9 9 8 7 7 7 8 10 10 11 11 11 9 9 9
13 13 13 12 13 12 12 11 10 10 10 10 11 12 13 13 14 12 12 11 9 9 8 6 6 3 5 8 6 2 6 7 10 13 14 10 8 3 1 7 7 6 4 9 8 7 6 6 10 12 4 10 7 6 7 8 7 9 10 9 8 8 9 13 11 11 11 7 7 9 9 10 13 11 10 9 9 9 9 9 10 10 10 10 9 9 9 9
14 14 12 12 12 13 12 12 11 11 11 11 11 13 12 14 15 14 12 11 9 7 6 7 6 4 6 9 10 14 13 8 12 15 10 9 10 8 6 9 9 6 6 2 5 5 4 6 8 11 8 8 3 10 7 8 8 9 9 10 10 8 8 11 9 11 12 9 9 12 10 7 12 9 8 9 8 8 8 8 10 10 9 9 8 9 9 8
14 13 13 11 11 12 12 12 11 10 9 12 12 14 14 15 15 15 13 11 8 6 6 6 6 7 8 11 1 7 6 9 13 12 11 10 9 7 8 10 9 6 6 5 1 3 6 7 11 9 9 9 11 10 10 8 9 10 10 9 11 10 7 10 12 11 7 6 10 14 8 7 9 7 6 7 7 7 7 8 8 8 7 8 7 7 7 8
14 14 13 12 11 12 12 11 11 11 11 12 13 13 14 15 16 16 13 10 8 7 6 3 5 5 6 4 1 6 9 11 2 2 7 11 11 7 10 11 10 10 7 4 3 5 8 9 7 7 10 10 11 12 11 11 10 11 11 8 10 14 7 8 12 9 11 10 10 13 11 6 11 9 7 6 6 7 8 8 6 6 6 5 6 6 6 6
14 14 13 13 12 12 12 12 12 12 12 12 13 14 14 15 10 2 7 9 5 4 5 4 3 5 13 16 8 3 2 4 4 4 6 6 11 10 10 10 10 11 9 8 5 10 10 10 9 9 9 12 14 13 13 13 12 11 11 10 9 13 11 9 11 12 12 12 11 13 13 10 9 10 8 4 1 5 7 7 6 5 6 6 4 5 4 5
14 13 12 12 12 12 12 11 10 10 10 10 17 18 13 12 6 3 7 9 9 5 5 8 8 8 2 3 11 6 6 4 0 5 8 9 9 10 10 8 11 14 11 10 9 11 10 8 9 11 15 15 14 14 13 9 12 11 13 9 8 10 10 7 10 10 11 15 12 14 12 9 7 6 6 5 2 2 5 3 4 5 5 5 5 4 3 3
13 13 12 11 12 12 12 11 10 10 10 10 7 4 3 3 6 5 6 10 14 9 4 5 17 9 3 6 5 4 4 5 7 8 7 10 11 12 10 11 12 12 12 11 13 12 11 12 13 15 13 15 15 16 14 5 7 9 12 11 9 11 12 8 9 8 3 10 13 16 11 7 7 7 6 4 2 3 3 3 4 5 5 5 5 4 3 4
12 12 12 12 12 12 12 10 9 9 6 8 8 6 5 2 8 6 9 11 15 15 13 8 15 15 9 5 3 6 2 9 8 5 10 11 13 16 12 13 13 12 12 13 12 10 12 13 14 16 15 16 16 15 12 5 8 10 10 12 10 12 11 11 10 7 5 7 8 4 7 6 8 6 6 4 1 2 2 2 4 5 5 4 5 4 4 3
12 12 11 12 13 12 11 9 8 9 9 9 7 7 6 4 6 5 5 7 15 22 19 18 11 13 14 15 5 2 4 4 9 10 9 14 15 15 14 13 15 13 13 13 11 11 13 15 13 16 15 15 15 14 10 9 8 9 9 10 9 10 9 9 8 6 3 7 6 10 9 6 6 6 5 5 3 2 2 3 3 4 3 4 3 4 2 3
14 13 11 11 13 13 11 10 8 5 9 7 8 9 8 2 3 5 5 9 13 13 17 17 17 20 19 12 10 5 8 9 8 14 12 14 16 16 17 14 15 12 14 15 14 12 12 14 14 16 13 13 13 14 13 12 9 9 10 11 11 11 10 11 9 6 4 5 8 11 8 6 6 6 7 5 4 4 3 3 4 4 4 4 4 4 3 4
13 14 13 11 12 13 13 10 10 11 8 9 10 9 1 1 5 5 6 6 7 7 14 17 18 17 17 13 8 13 13 8 10 10 14 14 15 15 14 18 16 14 14 17 16 12 11 9 15 13 13 16 15 14 15 13 11 11 11 9 11 13 12 7 12 7 6 4 7 10 7 7 7 7 6 6 4 5 5 6 6 6 6 5 7 8 8 7
12 13 13 12 12 13 12 12 9 5 4 6 9 8 7 5 4 3 6 6 8 8 11 11 10 12 12 9 8 11 12 11 11 7 12 16 17 15 13 13 12 15 14 18 16 13 13 9 12 15 15 17 17 15 17 14 12 11 10 11 8 10 15 8 15 10 8 8 9 14 9 9 7 6 5 6 5 6 5 7 8 8 7 7 8 9 9 9
13 10 11 12 12 11 13 9 2 1 4 7 3 4 4 1 3 4 5 5 7 6 7 10 11 9 10 12 11 10 8 13 14 10 10 14 14 14 10 12 10 14 16 17 14 9 10 13 15 16 17 17 17 15 17 16 11 11 12 10 3 9 10 10 10 12 9 9 13 8 9 6 8 8 7 7 8 9 8 8 9 8 9 9 11 11 10 12
13 11 11 12 11 11 7 1 6 4 6 4 4 3 2 3 4 5 5 5 8 9 9 8 12 6 8 15 16 13 10 11 11 14 13 14 16 13 13 12 11 8 11 9 8 12 9 15 15 17 18 17 15 15 17 18 11 9 12 14 8 6 8 9 10 10 7 7 10 9 9 6 10 8 7 8 9 10 10 9 8 8 10 11 12 12 13 12
13 11 11 11 11 9 7 8 9 7 7 3 2 1 4 4 5 4 6 4 4 6 7 6 3 6 8 15 18 17 3 14 14 16 15 14 16 15 13 16 13 13 13 13 14 8 14 14 17 18 19 15 15 14 15 18 12 6 11 14 11 9 9 10 9 10 5 6 10 11 13 7 8 10 9 10 10 9 10 9 9 9 11 12 13 13 14 14
13 13 11 12 12 10 7 9 9 10 4 2 3 5 4 6 6 5 3 6 3 2 3 7 6 8 7 14 18 18 8 12 11 16 16 15 17 9 14 15 15 13 13 15 11 10 10 16 17 17 16 15 13 12 13 15 14 7 9 9 7 8 8 8 8 9 5 6 9 13 14 10 8 10 10 9 8 9 10 10 9 11 12 12 12 13 13 13
12 11 12 13 11 9 7 7 11 9 6 5 6 6 8 5 6 6 5 8 5 4 1 5 9 10 12 16 15 18 15 9 1 17 17 14 19 10 11 7 15 13 13 15 15 12 10 13 16 15 17 13 13 11 13 14 2 8 8 10 8 7 8 7 6 7 7 9 11 13 18 14 8 11 10 10 7 8 10 9 10 12 12 12 12 12 12 12
12 11 13 12 8 5 5 7 8 6 6 4 5 9 5 6 6 6 9 1 3 4 4 8 8 10 15 17 13 17 16 11 12 17 15 15 17 14 9 10 10 11 11 12 13 9 9 9 9 11 11 9 11 10 8 11 7 10 8 10 10 9 6 7 8 7 7 7 13 12 15 15 9 11 7 8 7 8 9 12 13 12 11 11 11 11 11 12
12 11 14 11 9 7 8 3 4 4 3 4 7 6 6 7 8 8 5 4 6 4 4 5 6 9 14 16 13 17 14 12 13 17 16 15 15 15 15 13 13 14 14 15 13 12 13 14 12 11 7 11 14 12 10 8 9 10 9 10 12 10 8 9 11 10 10 9 11 10 12 9 6 6 13 12 10 9 8 12 13 13 12 11 11 11 10 10
10 13 15 12 12 10 12 11 5 4 5 7 7 7 7 7 9 9 7 4 1 2 4 8 2 6 12 15 15 19 16 14 16 17 19 18 15 15 17 14 16 12 11 14 13 11 10 13 16 12 11 12 13 14 13 12 12 13 13 12 12 11 12 11 12 8 10 5 5 10 10 9 9 9 12 12 11 13 13 14 14 12 12 11 10 10 10 10
13 15 11 10 10 11 10 9 8 8 6 5 6 7 8 9 7 2 7 4 4 3 6 5 8 4 12 12 13 17 15 14 17 15 19 16 16 15 15 17 18 15 10 14 14 13 11 13 15 16 12 15 15 13 13 11 13 12 12 13 12 10 10 11 12 12 13 10 7 4 9 8 12 8 10 12 13 13 13 13 13 13 12 11 11 11 11 11
14 15 14 12 11 12 13 12 10 9 7 5 6 9 10 10 7 4 7 3 5 2 8 8 9 6 11 12 13 18 14 12 16 18 18 17 15 14 16 15 19 16 11 12 11 8 17 8 12 16 8 18 17 14 12 13 11 12 10 10 12 12 8 11 3 9 12 9 9 5 2 5 4 8 9 11 14 13 12 13 12 12 10 11 10 10 10 9
12 9 8 9 9 8 9 9 11 10 8 7 8 10 12 8 5 7 1 1 3 2 9 11 9 8 9 11 11 17 16 8 17 15 16 18 17 16 17 13 15 19 12 11 9 10 12 10 16 18 6 16 18 15 12 13 10 12 13 14 12 7 10 3 3 7 4 7 6 3 4 5 8 6 10 11 12 13 12 11 10 9 10 10 9 9 9 9
8 9 9 8 9 7 6 9 10 11 9 8 10 10 10 8 7 2 3 1 4 5 3 4 8 8 10 11 11 18 14 10 15 14 14 17 15 17 18 15 16 19 14 11 10 9 9 9 14 15 14 12 16 13 12 16 8 10 13 13 7 2 5 8 7 3 8 10 5 8 9 9 11 6 12 13 14 13 12 12 13 11 10 10 8 8 8 9
8 7 10 11 10 6 8 11 13 10 8 8 10 12 8 10 7 7 4 1 1 6 3 4 3 9 8 10 14 18 17 13 16 15 12 16 9 16 16 13 19 17 16 13 6 9 9 9 11 17 14 11 6 13 12 11 7 11 12 11 12 10 7 9 5 12 12 10 6 9 10 7 12 9 14 16 16 14 13 13 13 11 10 10 9 9 7 7
8 6 5 2 4 9 10 13 12 9 9 10 10 11 9 9 3 6 2 2 5 4 2 5 4 3 4 9 11 18 19 14 16 14 13 12 11 15 15 11 16 16 17 12 9 9 10 7 9 11 13 13 12 11 11 13 12 7 11 11 12 7 10 8 6 6 10 10 7 10 12 8 10 8 18 17 16 15 15 13 12 11 10 8 8 7 7 7
7 3 4 3 4 10 12 13 9 9 9 12 10 11 5 9 8 3 3 1 1 2 2 6 7 7 6 5 11 14 16 18 15 13 12 11 8 13 15 15 11 17 17 13 8 8 8 6 7 11 8 13 12 12 12 13 14 12 11 13 12 7 4 9 9 10 11 7 7 8 8 6 7 5 12 15 16 15 15 13 11 10 9 8 7 6 7 8
4 4 1 4 8 10 12 9 8 10 11 9 11 10 9 7 2 0 2 4 1 5 8 9 9 8 6 7 8 12 12 15 15 12 12 13 11 6 11 13 11 17 16 15 10 8 6 8 8 11 11 14 12 15 12 17 14 12 11 12 14 13 9 13 10 4 7 9 8 10 9 7 4 1 9 12 16 14 15 16 12 12 10 8 8 8 7 7
3 4 3 6 9 13 11 9 7 7 7 9 8 8 6 0 2 4 5 3 3 6 6 10 13 13 11 10 9 10 11 12 13 12 12 11 13 6 12 11 13 16 14 10 10 9 4 8 9 12 13 14 10 8 2 3 9 13 13 11 14 11 10 11 9 10 6 2 2 7 7 5 3 1 5 14 15 15 14 15 14 12 11 9 9 9 9 9
4 2 3 8 9 11 7 7 6 6 8 7 2 5 2 1 0 2 6 1 4 6 7 8 10 9 11 10 10 11 16 11 14 12 11 13 11 5 8 14 11 15 14 11 11 7 1 5 10 13 12 8 7 5 2 4 8 10 13 12 13 14 13 10 8 9 7 6 6 3 5 6 4 5 8 14 16 15 12 14 16 12 11 10 10 10 9 9
3 0 3 5 8 5 6 7 7 8 8 6 6 4 2 3 3 7 9 3 2 3 6 7 9 11 9 7 9 12 15 6 2 7 7 9 7 6 6 11 13 12 14 10 8 10 4 5 11 12 8 9 7 7 9 7 8 10 11 9 10 14 16 8 2 9 6 10 11 7 9 5 6 5 9 15 16 15 14 13 14 14 11 10 10 9 9 9
4 2 3 6 6 5 7 2 4 6 9 8 6 8 7 4 5 10 6 7 9 12 9 10 11 6 7 7 11 11 17 8 8 1 6 9 6 5 6 9 16 12 12 7 7 9 5 4 8 13 14 14 14 15 14 12 13 7 1 8 4 9 12 9 7 8 7 7 8 8 2 8 9 8 11 14 15 15 13 14 12 12 11 10 10 9 9 9
3 2 3 6 5 3 6 5 5 5 6 8 4 6 4 5 4 5 7 12 14 15 14 13 14 12 11 8 10 12 12 8 10 7 8 7 7 5 4 12 11 10 8 4 8 9 2 2 5 3 11 13 8 5 6 4 10 10 7 9 6 1 6 10 6 6 7 8 8 7 5 12 12 12 12 13 13 15 13 12 12 11 11 11 11 10 9 10
4 2 5 6 5 7 5 5 6 6 5 5 4 3 7 7 4 6 11 7 12 16 12 7 6 6 7 11 10 10 13 13 7 9 6 8 5 5 7 10 6 6 11 7 4 7 4 3 4 7 11 8 5 5 2 3 11 9 12 8 5 4 2 9 6 7 5 8 8 6 14 14 14 14 13 13 12 13 12 12 12 10 10 10 11 12 12 11
4 1 2 3 3 5 7 6 7 6 2 4 3 1 3 7 7 5 8 16 12 8 6 3 8 11 9 10 14 8 14 13 11 4 8 8 10 9 10 9 7 7 10 7 4 7 9 4 3 6 9 7 6 7 6 9 10 8 8 8 7 4 5 10 3 4 8 6 3 9 8 10 14 13 13 12 12 12 12 12 11 11 11 11 12 12 12 11
2 4 4 1 4 1 5 2 9 8 6 5 3 4 4 7 9 10 7 4 7 10 12 4 8 6 7 8 13 8 12 9 4 6 6 9 9 10 8 9 6 9 8 9 4 2 4 2 5 6 10 8 7 6 6 10 11 11 9 8 6 6 6 7 7 4 5 3 4 13 15 14 10 13 12 12 12 13 12 11 11 11 11 11 12 12 11 10
1 2 1 4 6 4 3 5 5 7 7 6 3 5 5 6 7 7 5 4 2 4 5 6 2 7 6 12 11 10 5 4 11 4 6 10 6 4 8 4 9 7 9 8 5 0 3 3 9 8 6 5 6 6 7 9 11 13 10 9 8 9 10 8 7 6 6 8 11 16 16 10 6 11 14 13 12 11 12 12 11 11 10 11 12 11 11 10
3 3 3 4 5 5 4 5 5 7 5 6 5 3 5 3 4 4 5 1 3 4 7 9 5 6 11 10 13 10 5 7 10 11 7 4 6 3 0 5 10 10 11 8 5 4 2 5 5 4 5 3 4 5 8 10 12 14 11 9 7 5 6 5 4 4 3 6 10 11 10 7 8 11 12 12 13 13 13 12 11 10 9 10 11 11 10 9
3 2 3 3 3 2 5 5 5 4 5 5 4 3 2 1 3 4 3 2 7 7 5 6 10 8 9 13 14 10 9 14 14 13 10 10 9 7 6 6 1 10 8 6 3 7 7 9 6 6 6 4 4 5 10 11 10 7 5 6 6 7 8 8 7 7 8 4 7 4 5 10 14 12 14 12 13 13 12 10 11 10 9 10 11 11 10 9
Wind_Direction
340 339 341 334 335 335 337 330 320 325 336 332 328 325 323 323 325 326 323 327 324 323 325 327 327 324 326 324 322 325 322 306 300 281 252 243 312 127 165 14 171 186 216 195 152 163 167 175 179 169 190 192 185 214 158 204 182 203 214 227 225 235 210 187 205 188 53 52 46 27 24 359 136 148 95 198 162 135 137 119 111 85 63 67 103 124 129 137
336 335 337 339 337 335 338 333 325 323 321 324 326 325 322 321 320 317 323 326 323 320 324 327 328 324 325 324 322 325 319 298 287 280 261 170 193 184 158 163 165 176 212 190 175 179 171 179 177 181 188 203 147 204 159 183 195 206 216 226 239 211 180 22 25 6 275 32 348 10 25 347 17 295 123 234 146 163 157 143 146 103 87 99 119 130 138 143
341 339 334 331 328 328 327 328 330 330 323 319 320 324 323 320 316 315 316 322 321 319 319 325 326 323 324 324 320 324 303 299 278 266 321 158 208 188 169 160 168 177 202 186 194 193 192 180 171 187 194 208 183 178 197 172 202 215 239 221 234 253 148 204 294 323 315 339 335 350 5 340 48 297 39 259 160 186 183 154 167 159 129 128 135 144 145 149
341 337 332 336 336 332 331 326 325 320 321 321 320 319 316 312 313 316 317 317 317 320 320 319 325 324 321 319 331 314 294 280 266 244 87 165 218 189 177 170 170 183 207 222 203 211 212 183 183 200 189 228 171 210 190 169 210 180 229 232 232 199 235 208 227 252 337 341 332 333 336 308 38 332 274 178 182 191 163 148 168 174 142 142 150 152 152 155
332 335 336 335 336 333 326 321 316 325 322 318 315 315 322 315 312 315 314 317 319 316 320 319 321 320 319 321 315 299 290 288 234 85 78 204 94 166 173 173 174 187 202 206 209 212 204 192 190 204 208 210 180 193 213 177 223 199 226 237 259 233 249 192 184 81 326 340 307 318 316 6 331 251 230 234 212 162 137 109 50 95 140 147 152 156 156 156
333 336 335 332 329 333 322 324 318 310 319 320 314 309 308 311 314 308 312 314 321 320 317 318 318 319 317 322 301 279 261 235 58 91 31 71 84 156 172 172 178 196 198 192 198 185 191 188 193 196 207 219 189 205 195 210 191 232 217 239 242 247 260 106 199 97 303 302 306 313 355 320 302 295 254 257 302 42 13 9 46 114 135 142 146 154 158 162
334 332 333 331 331 329 323 312 316 310 304 300 311 310 310 311 317 312 307 317 317 316 316 316 316 317 327 297 279 263 236 281 167 80 102 21 123 174 170 172 178 197 194 191 191 185 187 183 196 197 206 215 204 217 196 199 190 234 244 195 228 239 239 242 259 266 259 290 297 319 319 291 301 217 84 240 103 29 21 36 100 113 127 138 146 158 161 164
321 324 327 326 331 329 318 312 312 312 308 310 306 309 306 306 308 310 315 312 312 316 314 314 318 318 335 306 254 221 229 245 266 11 360 330 238 149 165 171 179 189 194 195 186 191 184 189 196 198 220 214 186 213 178 198 195 224 242 215 230 221 233 244 246 248 265 271 282 298 283 276 259 324 239 184 126 68 70 100 111 120 129 138 146 155 160 161
321 320 321 324 322 321 315 314 317 313 306 298 294 304 308 306 308 311 305 309 311 310 314 311 310 323 257 283 277 269 245 246 323 344 341 323 134 154 158 164 186 185 197 197 193 194 189 194 204 203 213 216 199 218 180 208 207 222 236 235 228 225 221 216 230 235 241 263 262 258 253 261 251 9 247 121 110 95 115 123 124 128 129 137 146 154 158 162
320 323 321 322 321 316 320 318 310 306 308 309 309 307 308 304 312 306 310 309 307 309 305 310 309 330 292 285 242 247 113 55 9 356 15 59 158 161 186 174 180 191 194 197 195 200 200 194 210 196 266 252 199 224 188 213 278 181 224 233 236 230 228 216 236 235 233 255 251 249 219 190 168 226 153 199 129 137 154 138 138 138 132 137 146 154 159 164
323 320 321 318 315 315 316 313 311 307 306 306 304 310 306 306 306 300 302 306 303 305 305 298 311 292 275 254 239 236 79 274 38 56 33 117 157 178 183 193 188 193 198 194 202 202 204 217 208 173 245 237 184 223 209 210 241 236 232 228 235 239 234 233 238 243 239 231 233 234 229 211 182 237 173 150 156 177 165 149 152 142 135 141 145 153 160 167
320 320 318 315 314 311 317 313 309 311 310 315 312 311 304 303 301 294 297 300 296 297 296 298 293 280 262 257 240 237 52 79 82 57 72 103 105 121 242 231 196 203 201 194 203 200 209 219 192 188 207 143 221 195 218 215 222 209 207 223 222 224 230 221 229 225 208 217 194 210 196 195 184 204 121 135 157 179 177 165 157 147 141 141 145 148 161 168
319 323 318 317 314 317 312 312 311 306 310 310 309 304 303 301 299 294 291 291 290 283 293 298 286 263 273 253 236 243 255 249 286 294 296 292 359 168 338 202 198 207 217 217 202 201 199 211 204 209 228 221 202 205 81 189 208 223 212 249 201 201 219 206 213 208 201 206 187 198 202 183 185 160 153 149 174 182 182 179 164 152 144 144 145 148 158 165
320 318 319 317 319 314 310 307 307 309 312 317 316 310 299 300 299 295 287 282 288 292 277 274 265 247 241 256 261 193 244 272 277 269 259 253 254 240 109 165 177 209 214 236 211 179 194 210 213 222 204 231 206 103 200 183 184 207 202 221 241 204 209 182 192 182 211 145 197 214 230 171 164 149 156 172 180 184 177 173 167 158 151 148 148 150 158 171
318 320 315 318 320 315 310 310 307 306 311 314 312 308 303 294 290 290 286 281 273 272 276 268 249 220 226 261 257 256 257 254 257 246 240 227 223 231 219 165 174 184 190 207 177 178 191 214 217 212 208 213 309 189 183 194 190 210 187 207 217 228 160 148 178 179 202 155 202 206 240 172 142 135 159 170 186 199 178 166 167 164 153 149 151 154 161 166
313 316 311 314 317 314 310 311 314 319 321 317 312 311 306 291 287 284 281 282 291 264 237 233 199 238 302 276 215 116 182 195 234 242 225 221 213 222 162 171 168 169 183 140 64 177 199 202 208 197 194 175 210 204 196 188 199 203 217 195 196 207 160 162 172 188 233 144 181 211 207 141 120 100 156 178 190 197 196 168 169 149 143 150 150 154 161 153
315 314 312 311 313 306 306 304 306 305 316 317 322 300 299 295 286 280 264 238 218 218 212 217 180 212 247 74 175 226 214 215 170 163 193 211 212 198 152 158 181 170 174 138 174 169 181 206 189 212 226 202 198 205 202 200 191 201 204 216 192 198 175 178 142 184 182 208 172 205 252 131 88 86 102 153 190 194 201 184 170 158 153 152 151 161 164 150
311 312 314 315 312 310 303 305 307 320 316 316 312 301 295 304 300 233 170 186 175 188 195 264 232 226 247 249 247 153 118 130 169 195 187 195 207 183 178 168 168 173 170 174 170 196 170 198 183 202 189 208 198 204 209 199 197 187 189 208 174 201 198 158 169 153 185 197 197 184 228 132 112 95 86 86 113 205 199 189 180 169 153 154 155 169 162 143
311 310 309 311 310 309 305 307 312 316 318 319 286 267 266 261 240 139 153 161 157 153 200 186 190 197 3 118 224 249 212 74 37 195 163 172 190 188 182 166 161 163 176 189 169 195 173 199 194 210 199 199 200 204 208 213 194 190 189 190 184 190 187 197 138 137 189 181 197 185 206 162 121 87 64 67 111 214 194 169 206 194 157 151 161 169 160 113
313 307 310 312 313 306 306 305 311 314 326 306 306 281 200 208 171 177 174 195 215 208 340 183 200 248 335 182 98 331 248 225 225 204 164 165 165 173 173 171 166 185 178 196 158 203 168 200 197 204 202 197 199 207 211 237 191 167 188 199 188 191 183 171 130 141 171 190 196 184 200 106 87 58 43 26 86 178 235 225 229 208 192 176 167 173 133 109
308 312 320 315 309 308 305 314 319 313 322 296 291 268 231 240 229 200 172 223 231 255 268 235 205 232 252 67 63 16 102 188 227 158 184 166 174 161 167 177 174 194 194 189 166 170 189 211 206 204 203 196 197 200 207 171 208 184 188 199 189 198 182 171 160 149 153 252 146 138 148 109 76 71 53 56 156 73 347 279 239 233 208 188 172 171 147 126
310 309 314 307 310 309 306 308 319 320 298 273 267 254 280 320 15 22 311 256 214 225 240 244 243 252 260 259 266 357 305 281 202 196 151 179 175 187 161 187 180 192 181 190 169 171 203 213 205 201 204 197 193 193 194 187 187 198 201 194 190 194 145 133 129 147 136 226 157 173 180 118 97 82 79 72 75 35 17 348 354 341 234 192 158 147 134 127
308 303 305 308 314 313 320 312 322 303 285 262 244 247 255 5 348 350 304 280 282 233 222 226 230 238 244 240 243 206 244 233 211 180 165 191 175 208 162 191 184 189 180 188 186 183 202 212 206 198 194 176 176 191 196 204 209 199 200 196 195 179 157 166 149 143 139 252 159 176 172 123 115 106 93 78 76 77 56 59 66 49 52 54 47 49 46 58
305 303 299 307 313 316 312 318 300 275 251 251 252 243 239 268 325 304 260 261 298 213 203 215 217 227 231 225 191 202 223 227 236 188 163 190 186 188 178 195 185 194 186 192 202 202 207 194 198 165 174 187 184 189 198 200 199 205 206 193 201 180 186 187 157 134 128 113 171 164 171 155 169 155 133 100 102 119 111 116 104 89 89 90 74 65 53 58
304 300 299 305 312 319 315 309 276 258 290 255 252 247 249 271 315 303 280 262 224 239 196 219 209 227 225 203 156 190 212 240 226 214 167 195 186 184 195 188 199 198 196 191 204 213 210 193 148 179 189 194 190 190 198 196 200 191 208 210 200 170 187 82 136 153 175 165 190 188 183 192 154 142 117 125 138 120 108 96 88 86 89 86 77 68 67 80
301 305 299 303 313 319 303 278 230 314 259 259 267 149 191 168 286 317 263 263 270 144 148 201 157 214 166 184 169 208 195 225 209 219 173 200 203 194 170 198 205 194 195 188 203 214 211 149 179 187 189 191 193 198 194 201 204 195 188 216 191 178 187 168 163 191 193 202 177 223 229 175 172 161 140 135 134 118 108 96 88 74 67 68 65 67 71 71
298 300 307 314 312 305 288 290 54 286 262 169 156 164 243 314 305 250 244 212 254 155 165 88 181 130 189 170 176 182 199 208 177 194 194 191 200 202 200 186 182 227 186 179 200 209 186 162 188 189 186 191 194 201 191 199 205 202 168 193 197 198 187 180 193 200 204 60 129 201 231 236 184 161 140 142 133 119 105 97 97 92 83 75 75 71 70 78
298 294 301 304 300 284 280 295 291 266 273 35 250 319 276 300 314 227 249 249 226 123 171 171 250 132 216 158 177 183 243 127 169 181 195 173 207 187 222 186 190 192 170 187 202 157 169 174 185 186 192 195 201 202 179 195 210 176 155 190 198 205 203 194 199 207 221 196 185 201 210 240 191 134 148 155 136 122 109 105 102 89 83 80 77 77 77 77
291 288 305 304 303 286 281 265 274 267 281 221 265 281 308 305 254 231 248 262 115 183 40 144 137 169 171 167 184 198 194 176 202 156 179 177 204 191 208 193 190 177 186 197 203 135 187 186 186 190 193 201 197 190 176 188 207 103 154 183 201 210 227 225 210 215 174 210 212 190 193 222 172 147 156 184 140 125 114 105 98 85 74 77 79 79 79 79
289 288 304 305 295 253 249 247 245 257 264 255 285 296 294 258 199 219 202 239 354 153 315 92 196 173 171 168 185 198 204 187 239 146 171 180 183 218 217 206 193 187 187 199 232 170 170 186 194 197 198 198 182 173 170 184 243 128 165 170 175 195 210 214 243 233 200 215 224 191 188 222 188 176 162 175 137 124 125 123 109 92 85 80 76 77 78 74
285 297 298 296 275 288 299 268 248 235 234 259 284 289 262 206 229 229 216 129 182 15 281 168 172 154 176 176 177 189 207 180 158 162 163 177 173 195 164 186 198 190 182 190 220 173 171 161 192 203 212 199 163 138 163 186 155 179 183 187 175 188 192 211 210 220 225 210 220 174 191 208 224 167 137 103 128 130 132 126 108 102 93 86 80 75 72 71
290 299 292 281 271 280 253 269 70 128 143 292 290 264 202 202 220 229 204 101 259 285 303 121 157 184 187 187 180 177 188 175 166 172 168 177 174 189 185 189 180 181 190 185 189 174 189 190 188 182 203 200 179 179 162 170 179 200 192 191 186 175 186 200 200 201 213 218 176 162 189 207 219 109 135 142 123 99 102 112 112 104 94 86 79 73 71 70
300 294 286 269 269 253 248 253 243 237 292 297 284 236 207 215 218 213 232 197 199 297 81 321 107 194 195 200 189 177 183 181 166 181 171 175 182 189 188 202 180 199 183 179 185 171 184 191 186 187 189 207 199 193 168 190 190 197 198 190 187 183 184 201 198 202 204 180 101 174 179 217 107 120 132 127 107 101 102 105 102 101 96 88 83 78 74 67
297 287 277 274 266 254 247 237 236 247 264 275 259 212 228 225 221 77 244 232 89 191 286 304 318 251 199 201 184 177 183 183 171 176 181 173 187 184 184 200 186 192 206 170 201 179 178 183 193 189 197 183 207 209 182 193 180 199 203 197 200 197 188 192 197 194 200 183 153 106 195 184 185 144 143 124 111 107 104 106 104 101 95 91 88 83 75 71
285 281 278 272 257 250 239 233 230 224 237 242 229 211 200 216 237 229 207 222 87 325 285 311 283 268 183 210 186 185 196 166 186 176 185 179 187 189 184 187 187 200 188 181 192 183 199 200 174 188 200 178 203 210 190 183 176 196 207 213 210 214 174 209 202 210 198 160 160 176 205 31 108 108 119 134 120 115 117 115 113 102 99 93 82 74 72 70
283 279 274 266 254 239 217 213 206 198 206 217 212 204 215 208 206 218 30 128 90 18 317 298 256 215 185 183 181 188 186 207 180 187 188 189 184 191 180 184 185 194 187 197 165 190 187 202 158 173 186 185 196 197 193 185 188 180 198 201 203 232 212 121 106 43 68 169 180 144 148 127 109 162 144 150 133 123 123 116 104 93 92 86 77 74 70 69
291 301 276 254 239 213 196 187 179 182 200 230 217 214 219 220 241 273 68 2 55 38 324 291 176 202 181 177 173 188 168 201 176 191 184 188 189 196 183 184 191 192 206 201 166 222 182 177 152 170 180 185 190 189 193 194 218 161 204 194 150 17 256 184 186 146 191 201 163 195 181 159 178 164 168 163 145 137 130 115 107 104 99 85 77 73 69 67
301 289 278 261 248 198 165 170 168 179 210 215 218 232 225 239 193 257 128 223 160 55 307 260 333 279 193 188 176 177 175 196 170 191 184 186 193 184 186 186 183 196 198 201 211 179 211 175 171 186 179 160 166 189 195 203 279 206 202 168 184 177 195 197 222 184 196 202 150 188 184 180 202 150 168 177 162 150 137 125 120 119 106 104 98 87 84 81
290 280 276 115 94 162 167 163 177 184 207 212 219 223 231 250 222 229 131 40 81 342 276 256 281 247 295 202 179 182 173 193 170 192 184 176 199 175 195 185 176 194 196 186 208 168 211 219 152 179 190 161 183 188 191 189 199 262 219 175 204 199 201 187 210 195 202 198 154 175 188 194 211 155 183 174 166 152 139 132 125 120 117 113 104 98 93 83
270 251 225 103 177 153 155 169 187 205 213 216 216 228 223 230 228 231 292 260 66 296 247 287 260 269 272 253 191 183 180 193 177 188 200 164 192 157 199 188 185 187 193 196 210 167 191 253 175 162 158 159 190 193 196 186 183 189 203 187 189 216 188 205 187 221 205 201 188 166 186 196 177 134 170 169 153 147 136 126 123 117 110 103 105 102 85 70
266 269 122 134 144 155 157 184 200 198 208 223 233 236 216 229 106 281 319 123 267 258 270 276 289 277 298 320 211 188 179 195 185 190 193 171 191 154 201 184 184 182 191 194 216 184 202 199 183 145 180 191 194 190 207 191 190 192 194 196 188 186 173 192 185 209 242 206 201 184 192 136 54 344 167 158 138 140 136 127 127 123 120 119 104 85 83 81
277 222 112 149 155 165 177 177 205 202 224 217 218 221 230 180 282 308 297 285 237 269 268 280 270 269 273 257 263 183 188 187 185 189 191 184 190 232 162 193 185 178 183 183 199 174 248 206 179 177 179 192 164 143 346 329 201 196 198 197 190 193 199 191 187 178 199 225 229 197 212 136 80 6 161 132 138 140 142 131 131 130 125 120 110 103 91 79
216 293 82 162 163 181 214 219 186 200 219 222 245 259 256 109 139 297 272 278 310 256 260 245 255 265 246 246 243 206 191 185 183 189 176 190 161 104 149 171 180 179 187 183 193 141 70 210 173 183 169 103 118 136 139 215 199 203 206 205 186 201 201 201 207 163 193 156 204 179 230 132 123 12 111 132 136 135 139 139 132 129 125 120 113 104 90 83
300 23 126 146 177 232 239 201 190 206 213 204 220 244 175 250 183 236 239 236 208 260 239 254 274 242 261 238 245 206 175 151 190 191 178 184 132 99 150 169 174 185 191 170 194 154 203 202 196 164 162 177 144 161 181 183 212 212 193 198 202 201 197 205 228 171 201 188 214 196 212 151 133 119 115 129 130 131 138 131 131 127 127 120 111 104 98 92
294 245 93 158 197 259 223 281 252 204 208 211 204 217 207 195 223 245 253 249 237 245 258 265 250 290 276 244 235 219 179 190 141 335 163 170 105 135 156 177 187 193 199 173 194 154 231 153 200 185 184 179 182 185 183 178 199 173 192 169 200 196 168 171 191 192 210 173 218 220 149 92 117 136 136 133 129 128 125 120 119 123 127 121 111 102 94 88
231 162 129 155 202 234 267 274 290 265 214 204 213 231 222 219 203 234 232 250 241 244 246 264 282 282 265 229 208 188 169 163 174 165 173 147 129 124 151 178 184 205 132 81 172 170 126 81 34 312 207 194 182 147 19 183 156 181 164 181 157 214 197 212 206 189 206 163 202 220 127 141 145 152 139 139 136 129 124 119 117 118 115 112 108 101 95 89
315 234 164 167 177 228 239 220 232 234 226 205 221 186 203 212 229 250 208 241 227 235 240 242 271 290 239 202 181 167 169 181 164 162 163 137 85 103 148 159 162 133 107 109 122 150 169 153 52 69 60 54 55 79 27 192 167 155 159 147 129 158 188 199 202 203 139 163 202 139 137 148 165 155 148 139 133 127 125 120 117 118 114 111 107 100 97 91
233 72 243 132 227 182 200 219 230 228 253 197 217 10 208 190 207 234 216 224 244 218 200 248 243 253 276 202 171 167 171 174 170 133 109 107 126 129 132 155 162 142 159 152 186 207 185 171 85 88 74 71 55 75 86 89 95 98 110 138 148 138 190 194 142 55 175 213 217 155 158 131 143 150 140 133 130 124 122 117 115 115 113 112 108 101 93 90
272 320 284 255 236 27 212 53 200 223 218 213 236 234 217 202 220 229 251 300 228 211 205 202 241 291 293 221 186 148 159 150 131 127 128 135 134 141 131 132 125 160 166 148 145 16 147 84 133 108 92 64 63 73 107 111 109 94 81 79 101 121 86 92 95 57 43 78 72 116 92 94 120 134 127 122 118 115 112 111 113 114 115 112 107 103 98 92
85 319 203 215 256 283 243 212 221 218 220 186 230 205 208 194 234 261 238 242 285 93 149 150 293 344 295 199 174 149 119 175 142 134 140 140 120 160 144 160 144 166 165 151 143 125 243 130 155 145 102 67 59 87 98 113 115 96 82 82 86 88 85 75 89 69 86 92 104 110 110 100 61 102 109 113 113 114 112 111 113 115 117 114 109 106 103 97
309 304 297 306 231 232 226 212 216 215 208 182 232 169 199 190 263 290 305 288 323 52 113 139 125 31 355 90 85 74 48 76 105 134 135 136 153 124 192 140 154 148 158 139 156 146 189 132 190 211 138 107 99 108 114 108 102 92 76 61 58 87 99 57 63 23 331 133 129 128 135 138 137 126 117 118 120 116 114 115 114 112 115 117 112 109 103 100
301 292 303 295 258 217 239 182 230 208 213 196 207 122 178 267 303 317 299 101 51 46 33 116 138 89 1 56 69 68 81 88 91 87 79 74 75 73 52 50 115 154 151 118 140 164 141 147 170 188 164 123 139 152 133 139 124 116 63 47 62 81 88 94 67 45 22 97 130 175 81 117 138 134 125 122 118 112 108 110 111 112 115 115 112 106 103 103